Total_Precipitation_Accumulation
0.06 0.10 0.18 0.16 0.12 0.19 0.20 0.21 0.30 0.36 0.31 0.40 0.56 0.74 1.01 1.16 1.42 1.70 1.69 1.64 1.69 1.97 2.29 2.49 2.88 3.29 3.56 3.74 3.86 4.20 4.37 4.14 3.69 3.30 2.85 2.75 2.73 2.51 2.30 2.21 2.07 2.25 2.16 2.36
0.07 0.09 0.10 0.07 0.07 0.12 0.16 0.18 0.30 0.37 0.32 0.38 0.56 0.92 1.14 1.19 1.24 1.40 1.49 1.42 1.51 1.83 1.93 2.00 2.15 2.50 2.72 2.96 3.26 3.60 3.84 3.70 3.12 2.91 2.74 2.67 2.65 2.48 2.51 2.41 2.40 2.14 2.11 2.32
0.06 0.07 0.07 0.06 0.06 0.09 0.15 0.16 0.22 0.31 0.36 0.48 0.62 1.28 1.39 1.18 1.13 1.06 1.20 1.25 1.25 1.45 1.67 1.77 1.79 1.89 2.16 2.76 2.99 2.89 3.16 3.34 3.08 3.00 2.94 2.86 2.82 2.62 2.72 2.70 2.58 2.21 2.05 2.04
0.05 0.05 0.04 0.06 0.06 0.07 0.14 0.13 0.14 0.20 0.29 0.60 0.71 1.39 1.47 1.26 1.32 1.08 1.02 1.06 1.00 1.00 1.27 1.47 1.43 1.49 1.73 2.04 2.34 2.70 3.03 3.11 3.03 2.93 2.75 2.66 2.47 2.42 2.44 2.44 2.44 2.30 2.16 2.03
0.05 0.04 0.03 0.05 0.06 0.06 0.09 0.09 0.11 0.18 0.31 0.55 0.70 1.14 1.40 1.25 1.50 1.18 0.84 0.72 0.68 0.68 0.82 0.99 1.13 1.26 1.35 1.50 1.91 2.48 2.95 3.17 3.06 2.75 2.63 2.75 2.59 2.50 2.48 2.37 2.55 2.40 2.23 2.06
0.05 0.04 0.04 0.04 0.05 0.05 0.05 0.10 0.21 0.36 0.53 0.94 0.91 1.00 1.33 1.14 0.97 0.78 0.64 0.56 0.55 0.60 0.63 0.72 0.83 1.06 1.21 1.29 1.57 2.04 2.48 2.78 2.85 2.67 2.55 2.62 2.72 2.70 2.56 2.43 2.41 2.22 2.19 2.12
0.09 0.09 0.06 0.04 0.04 0.06 0.05 0.11 0.42 0.71 0.96 1.10 0.72 0.92 1.28 0.86 0.70 0.64 0.61 0.59 0.52 0.50 0.62 0.75 0.83 0.97 1.00 1.06 1.33 1.65 1.88 2.11 2.33 2.49 2.55 2.47 2.63 2.71 2.50 2.27 2.32 2.28 2.12 2.12
0.12 0.19 0.10 0.06 0.06 0.07 0.07 0.10 0.27 0.46 0.57 0.68 0.71 1.37 1.29 0.71 0.59 0.52 0.49 0.49 0.50 0.61 0.67 0.75 0.92 0.99 0.93 0.97 1.21 1.44 1.64 1.90 2.17 2.36 2.42 2.35 2.29 2.20 2.16 2.30 2.21 2.21 2.18 2.13
0.06 0.08 0.07 0.07 0.06 0.07 0.07 0.09 0.14 0.22 0.28 0.52 0.86 1.06 0.82 0.52 0.52 0.52 0.47 0.50 0.55 0.67 0.79 0.86 1.00 1.04 0.94 1.00 1.22 1.38 1.57 1.74 1.90 2.20 2.37 2.27 2.20 2.04 2.00 2.06 2.05 2.00 2.15 2.12
0.04 0.05 0.06 0.06 0.06 0.07 0.08 0.09 0.14 0.16 0.24 0.42 0.73 0.98 1.04 0.79 0.66 0.55 0.54 0.59 0.61 0.73 0.91 1.02 1.02 1.06 1.02 1.09 1.32 1.38 1.50 1.59 1.63 1.78 1.85 1.76 1.96 1.97 2.08 2.06 1.97 1.89 1.89 1.93
0.04 0.04 0.05 0.06 0.07 0.09 0.10 0.09 0.09 0.12 0.15 0.28 0.60 0.80 0.76 0.73 0.70 0.57 0.55 0.63 0.72 0.74 0.89 1.00 0.97 0.96 0.93 0.99 1.13 1.15 1.30 1.45 1.51 1.64 1.69 1.74 1.86 1.93 1.97 2.01 1.98 1.99 1.98 1.99
0.04 0.05 0.05 0.08 0.09 0.09 0.12 0.14 0.13 0.12 0.11 0.18 0.31 0.47 0.45 0.53 0.62 0.58 0.61 0.71 0.80 0.64 0.71 0.92 0.99 1.01 0.82 0.87 0.96 1.08 1.26 1.38 1.45 1.63 1.77 1.82 1.97 2.02 1.96 2.00 2.19 2.19 2.14 2.10
0.03 0.05 0.08 0.14 0.19 0.14 0.10 0.10 0.13 0.13 0.13 0.13 0.22 0.40 0.39 0.45 0.57 0.58 0.68 0.78 0.76 0.74 0.74 0.88 0.97 0.89 0.80 0.82 0.90 0.94 1.07 1.23 1.35 1.49 1.66 1.89 1.99 2.05 2.21 2.39 2.55 2.57 2.46 2.40
0.04 0.03 0.07 0.15 0.23 0.26 0.20 0.13 0.13 0.13 0.13 0.13 0.17 0.31 0.38 0.51 0.61 0.63 0.68 0.82 0.76 0.71 0.70 0.71 0.87 0.91 0.83 0.80 0.83 0.88 1.02 1.18 1.35 1.63 1.84 2.03 2.26 2.43 2.59 2.61 2.70 2.70 2.66 2.64
0.03 0.02 0.04 0.07 0.11 0.16 0.17 0.13 0.12 0.11 0.10 0.13 0.18 0.29 0.39 0.50 0.61 0.68 0.71 0.70 0.69 0.64 0.67 0.80 0.92 1.07 1.07 0.99 0.92 0.94 1.18 1.41 1.63 1.92 2.05 2.12 2.24 2.43 2.70 2.94 2.94 2.86 2.78 2.69
0.06 0.05 0.06 0.07 0.10 0.13 0.12 0.12 0.11 0.09 0.09 0.11 0.17 0.30 0.42 0.54 0.61 0.57 0.60 0.60 0.65 0.73 0.79 0.94 1.07 1.20 1.29 1.32 1.30 1.32 1.48 1.74 2.06 2.38 2.52 2.66 2.76 2.88 3.02 3.12 3.18 3.23 3.18 3.11
0.16 0.16 0.16 0.15 0.15 0.17 0.15 0.15 0.14 0.13 0.14 0.16 0.23 0.33 0.48 0.62 0.59 0.65 0.68 0.67 0.77 0.86 0.95 1.07 1.17 1.24 1.38 1.42 1.50 1.69 1.87 2.10 2.34 2.54 2.66 2.78 2.89 3.06 3.22 3.30 3.37 3.24 3.20 3.16
0.36 0.34 0.27 0.22 0.28 0.31 0.22 0.25 0.26 0.29 0.31 0.34 0.37 0.43 0.53 0.66 0.67 0.74 0.78 0.77 0.78 0.91 1.09 1.13 1.20 1.30 1.40 1.53 1.70 1.89 2.04 2.17 2.49 2.72 2.82 2.88 2.93 3.02 3.23 3.45 3.37 3.21 3.19 3.14
0.44 0.51 0.48 0.37 0.36 0.38 0.38 0.34 0.35 0.46 0.58 0.52 0.66 0.74 0.71 0.76 0.83 0.88 0.90 1.02 1.02 0.99 1.08 1.17 1.28 1.36 1.49 1.57 1.62 1.63 1.76 1.96 2.21 2.45 2.64 2.66 2.82 3.00 3.12 3.16 3.18 3.27 3.25 3.06
0.37 0.42 0.51 0.53 0.56 0.55 0.55 0.52 0.41 0.48 0.85 0.84 0.92 1.01 0.96 1.00 1.25 1.18 0.92 0.91 1.03 1.09 1.13 1.24 1.39 1.44 1.42 1.46 1.51 1.58 1.74 1.96 2.18 2.40 2.61 2.79 2.95 3.11 3.14 3.17 3.31 3.38 3.36 3.32
0.57 0.58 0.58 0.60 0.66 0.64 0.55 0.50 0.52 0.89 1.19 1.14 1.21 1.24 1.16 1.21 1.29 1.23 1.06 0.98 0.98 1.03 1.08 1.18 1.34 1.50 1.51 1.49 1.67 1.85 1.99 2.14 2.32 2.45 2.55 2.70 2.90 3.13 3.39 3.57 3.51 3.51 3.49 3.42
0.80 0.81 0.79 0.83 1.03 1.15 0.83 0.76 1.01 1.20 0.95 1.00 1.18 1.39 1.41 1.35 1.28 1.23 1.14 1.09 1.02 0.96 1.02 1.22 1.36 1.49 1.63 1.73 1.88 2.04 2.09 2.15 2.36 2.57 2.67 2.75 2.95 3.02 3.18 3.46 3.49 3.42 3.41 3.33
0.93 1.04 1.14 1.18 1.35 1.22 1.03 1.04 0.99 1.07 1.24 1.30 1.39 1.59 1.63 1.48 1.35 1.37 1.32 1.22 1.14 1.07 1.10 1.24 1.38 1.52 1.61 1.81 2.00 2.15 2.22 2.28 2.39 2.53 2.72 2.91 3.02 3.09 3.22 3.39 3.46 3.44 3.36 3.23
0.98 0.85 1.08 1.40 1.53 1.34 1.18 1.14 1.09 1.15 1.34 1.42 1.41 1.45 1.49 1.47 1.41 1.54 1.58 1.44 1.41 1.38 1.34 1.38 1.47 1.57 1.65 1.73 1.95 2.16 2.28 2.31 2.43 2.51 2.58 2.75 2.91 3.05 3.22 3.24 3.11 2.98 2.85 2.79
1.06 1.08 1.30 1.72 1.89 1.79 1.58 1.43 1.33 1.34 1.30 1.39 1.34 1.37 1.39 1.44 1.46 1.53 1.67 1.70 1.64 1.52 1.44 1.48 1.58 1.70 1.75 1.77 1.84 2.09 2.28 2.37 2.41 2.54 2.62 2.61 2.63 2.72 2.89 2.96 2.92 2.79 2.63 2.49
1.19 1.42 1.79 2.19 2.13 2.21 2.03 1.67 1.48 1.54 1.52 1.47 1.43 1.50 1.55 1.55 1.54 1.58 1.73 1.76 1.73 1.65 1.57 1.60 1.64 1.68 1.73 1.84 1.94 2.04 2.31 2.57 2.65 2.64 2.51 2.43 2.35 2.34 2.42 2.45 2.48 2.61 2.50 2.49